Home   Weather   Prince Rupert   Past weeks
Flag for Canada

Past Weather in Prince Rupert, British Columbia, Canada — Yesterday and Last 2 Weeks

Now
66 °F

Sunny.


Feels Like: 66 °F
Forecast: 72 / 52 °F
Wind: 5 mph from Southwest

Location: Prince Rupert

Current Time: Jul 22, 2019 at 1:45:52 pm

Latest Report: Jul 22, 2019 at 1:00 pm


Visibility: 9 mi

Pressure: 29.90 "Hg

Humidity: 68%

Dew Point: 55 °F

Location of Prince RupertLocation

Past Weather in Prince Rupert — Graph

°F

Prince Rupert Temperature Yesterday

Maximum temperature yesterday: 66 °F (at 2:00 pm)
Minimum temperature yesterday: 52 °F (at 3:00 am)
Average temperature yesterday: 59 °F

High & Low Weather Summary for the Past Weeks

 TemperatureHumidityPressure
High66 °F (Jul 10, 5:00 pm)100% (Jul 8, 9:24 am)30.18 "Hg (Jul 8, 9:24 am)
Low52 °F (Jul 20, 6:00 am)64% (Jul 21, 2:00 pm)29.42 "Hg (Jul 17, 6:19 am)
Average59 °F89%29.96 "Hg
* Reported Jul 7 12:00 pm — Jul 22 12:00 pm, Prince Rupert. Weather by CustomWeather, © 2019

Note: Actual official high and low records may vary slightly from our data, if they occured in-between our weather recording intervals... More about our weather records

Advertising

Prince Rupert Weather History for the Previous 24 Hours

Scroll right to see more
 ConditionsComfort  
Time TempWeatherWind HumidityBarometerVisibility
12:00 pm
Mon, Jul 22
66 °FSunny.6 mph73%29.91 "Hg9 mi
11:00 am66 °FSunny.5 mph78%29.93 "Hg9 mi
10:00 am63 °FSunny.5 mph83%29.93 "Hg9 mi
9:00 am61 °FSunny.No wind77%29.95 "Hg9 mi
8:00 am55 °FSunny.2 mph94%29.96 "Hg9 mi
7:00 am54 °FPassing clouds.2 mph100%29.98 "Hg9 mi
6:00 am52 °FSunny.5 mph100%29.98 "Hg9 mi
5:00 am52 °FClear.2 mph100%29.99 "Hg9 mi
4:00 am52 °FClear.5 mph100%30.01 "Hg9 mi
3:00 am54 °FClear.2 mph94%30.02 "Hg9 mi
2:00 am55 °FClear.3 mph94%30.02 "Hg9 mi
1:00 am55 °FClear.5 mph100%30.03 "Hg9 mi
12:00 am55 °FClear.2 mph94%30.03 "Hg9 mi
11:00 pm
Sun, Jul 21
57 °FClear.2 mph94%30.04 "Hg9 mi
10:00 pm59 °FClear.No wind88%30.03 "Hg9 mi
9:00 pm61 °FPassing clouds.No wind88%30.03 "Hg9 mi
8:00 pm64 °FSunny.2 mph78%30.03 "Hg9 mi
7:00 pm66 °FPartly sunny.3 mph78%30.02 "Hg9 mi
6:02 pm63 °FPartly sunny.3 mph83%30.03 "Hg9 mi
5:00 pm61 °FPartly sunny.5 mph77%30.04 "Hg9 mi
4:00 pm64 °FPassing clouds.6 mph78%30.03 "Hg9 mi
3:08 pm63 °FOvercast.5 mph77%30.02 "Hg9 mi
2:53 pm63 °FLight rain. Overcast.2 mph83%30.02 "Hg9 mi
2:00 pm66 °FOvercast.6 mph64%30.01 "Hg9 mi
1:00 pm64 °FSunny.3 mph73%30.00 "Hg9 mi
Weather by CustomWeather, © 2019

See weather overview